Regional Weather Roundup
Issued by NWS

Home | Current Version | Previous Version | Text Only | Print | Product List | Glossary On
Versions: 1 2 3 4 5 6 7 8 9 10 11 12 13 14 15 16 17 18 19 20 21 22 23 24 25 26 27 28 29 30 31 32 33 34 35 36 37 38 39 40 41 42 43 44 45 46 47 48 49 50
000
ASUS44 KLUB 260701
RWRTX
WEST TEXAS WEATHER ROUNDUP
NATIONAL WEATHER SERVICE LUBBOCK TX
100 AM CST WED NOV 26 2014

NOTE: "FAIR" INDICATES FEW OR NO CLOUDS BELOW 12,000 FEET WITH NO
SIGNIFICANT WEATHER AND/OR OBSTRUCTIONS TO VISIBILITY.

TXZ004-006>008-010-012-014-016-OKZ002-260800-
TEXAS PANHANDLE/OKLAHOMA PANHANDLE

CITY           SKY/WX    TMP DP  RH WIND       PRES   REMARKS
AMARILLO       CLEAR     43  19  38 W14       30.01S
BORGER         CLEAR     41  16  36 W13       29.99R
CANADIAN       CLEAR     28  20  72 CALM      29.96S
DALHART        CLEAR     33  19  56 W8        30.03R WCI  26
DUMAS            N/A     36  19  49 W15       30.00S WCI  26
GUYMON         CLEAR     36  18  48 NW10      29.96S WCI  28
HEREFORD       CLEAR     33  19  56 SW10      30.04R WCI  25
$$

TXZ026-029-035-045-048-260800-
SOUTHERN PANHANDLE/SOUTH PLAINS/ROLLING PLAINS

CITY           SKY/WX    TMP DP  RH WIND       PRES   REMARKS
CHILDRESS      CLEAR     40  17  39 SW6       29.97F
LUBBOCK        CLEAR     42  13  30 W8        30.03S
$$

TXZ052-054-060>062-072-078-127-140-154-169-260800-
PERMIAN BASIN/CONCHO VALLEY/BIG COUNTRY/EDWARDS PLATEAU

CITY           SKY/WX    TMP DP  RH WIND       PRES   REMARKS
ABILENE        CLEAR     46  22  38 SW16      30.07F
JUNCTION       CLEAR     31  25  78 CALM      30.20S
MIDLAND        CLEAR     44  13  28 W10       30.14S
ODESSA         CLEAR     40  11  30 W7        30.15S
SAN ANGELO     CLEAR     38  22  52 SW7       30.15S WCI  33
WINK           CLEAR     42  11  28 W6        30.14S
$$

TXZ055-058-074-075-080-082-260800-
FAR WEST/SOUTHWEST MOUNTAINS/TRANS PECOS

CITY           SKY/WX    TMP DP  RH WIND       PRES   REMARKS
ALPINE         CLEAR     42   8  25 S9        30.31R
DRYDEN           N/A     48  15  26 W10       30.19S
EL PASO        CLEAR     37  10  32 E8        30.28R WCI  31
FORT STOCKTON  CLEAR     46  13  26 SW16      30.18S
MARFA          CLEAR     43   9  24 W13       30.29R
$$

TXZ014-016-019-021>030-083-260800
TEXAS TECH WEST TEXAS MESONET/TEXAS PANHANDLE/NORTHERN SOUTH PLAINS

CITY           SKY/WX    TMP DP  RH WIND       PRES   REMARKS
ABERNATHY 5ENE   N/A     38  14  38 W10       30.03S WCI  30
AMARILLO 9NNE    N/A     35  20  54 E2        30.01S
AMARILLO 7SSE    N/A     42  19  38 W12       30.01S
AMHERST 1NE      N/A     45  11  25 W17       30.05R
BOOTLEG 11WNW    N/A     39  15  38 W9        30.08S WCI  32
CANADIAN 6E      N/A     31  15  52 NW6       29.94S WCI  25
CAPROCK CYN SP   N/A     46  15  28 W17       29.99R
CHILDRESS 2NNE   N/A     44  16  31 W8        29.96S
CLARENDON 2WSW   N/A     38  18  44 W9        29.98R WCI  32
CLAUDE 12SW      N/A     42  18  38 W12       29.99S
DIMMITT 2NE      N/A     41  14  33 W14       30.03S
FLOYDADA 2NNE    N/A     35  12  39 W10       30.02S WCI  27
FRIONA 2NE       N/A     35  14  42 W9        30.05S WCI  28
GOODLETT 3W      N/A     36  22  55 SW9       29.96S WCI  29
HART 3N          N/A     37  17  44 W12       30.03S WCI  29
HEREFORD 2NW     N/A     35  15  43 W12       30.04R WCI  27
MCLEAN 1E        N/A     41  18  39 NW10      29.95R
MEMPHIS 1NE      N/A     33  20  59 SW6       29.96F WCI  28
MULESHOE 2SSW    N/A     40  12  31 W9        30.06R WCI  34
OLTON 6S         N/A     40  11  30 W14       30.03S WCI  32
PALO DURO SP     N/A     38  17  42 W15       30.01S WCI  30
PAMPA 2E         N/A     41  19  41 W10       29.97S
PLAINVIEW 1S     N/A     38  15  39 W9        30.01S WCI  32
SILVERTON 7ESE   N/A     33  15  48 W7        30.01S WCI  27
TULIA 2ENE       N/A     39  17  39 W14       30.01R WCI  31
TURKEY 2WSW      N/A     44  16  31 W12       29.97S
UMBARGER 3NNE    N/A     37  17  45 W9        30.03R WCI  30
$$

TXZ033>036-039>041-045>048-260800
TEXAS TECH WEST TEXAS MESONET/SOUTH PLAINS

CITY           SKY/WX    TMP DP  RH WIND       PRES   REMARKS
AIKEN 3WSW       N/A     34  17  48 W8        30.03S WCI  27
ANDREWS 2NE      N/A     43  11  26 W13       30.12F
ANTON 6SSW       N/A     43  13  30 W12       30.05R
BROWNFIELD 2S    N/A     37  11  34 W9        30.06F WCI  30
DENVR CTY 7WNW   N/A     40   9  27 W10       30.09F WCI  34
GAIL 2ESE        N/A     42  16  35 SW9       30.06F
LAMESA 2SE       N/A     39  16  39 SW13      30.09F WCI  31
LEVELLAND 4S     N/A     45   9  22 W14       30.05S
LUBBOCK 3WNW     N/A     44  11  26 W10       30.05R
MORTON 1ENE      N/A     42   9  25 W13       30.07R
ODONNELL 1N      N/A     38  16  40 SW13      30.07S WCI  31
PLAINS 3N        N/A     46   7  20 W17       30.07F
RALLS 1SE        N/A     42  11  28 W12       30.03S
REESE CENTER     N/A     42  11  27 W12       30.04S
SEAGRAVES 1SW    N/A     36  12  37 SW7       30.08F WCI  30
SEMINOLE 2NNE    N/A     37  13  38 SW6       30.11S WCI  32
SLATON 2NE       N/A     40  12  32 W7        30.04S WCI  35
SNYDER 3E        N/A     38  22  51 S7        30.07F WCI  33
SUNDOWN 8SW      N/A     43   8  23 W13       30.06F
TAHOKA 3NNE      N/A     39  12  33 SW9       30.05S WCI  33
WOLFFORTH 6SSW   N/A     41  11  30 W8        30.05S
$$

TXZ031-032-036>038-042>044-260800-
TEXAS TECH WEST TEXAS MESONET/ROLLING PLAINS

CITY           SKY/WX    TMP DP  RH WIND       PRES   REMARKS
ASPERMONT 3NE    N/A     45  22  40 S12       30.03S
FLUVANNA 3WNW    N/A     40  18  42 SW9       30.05F WCI  33
GRAHAM 5SSW      N/A     41  15  33 W13       30.04F
GUTHRIE 10WSW    N/A     42  19  39 SW10      29.99F
HASKELL 1NW      N/A     41  27  57 SW12      30.02F
JAYTON 1SSE      N/A     41  20  43 SW9       30.03S
KNOX CITY 3NW    N/A     43  23  45 SW13      30.01F
LK A HENRY 1NW   N/A     46  17  31 SW10      30.04S
NORTHFIELD 1S    N/A     44  15  31 W12       29.98R
ODELL 4ENE       N/A     42  27  54 S10       29.97S
PADUCAH 10SW     N/A     42  15  33 SW5       29.98F
POST 1NE         N/A     44  15  31 W18       30.02F
RRING SPRGS 3N   N/A     44  14  29 W18       29.99S
SEYMOUR 3NW      N/A     44  28  53 SW9       30.00F
SPUR 1W          N/A     35  18  49 SW7       30.00F WCI  30
WEINERT 2NNE     N/A     41  27  57 SW12      30.01F
WHITE RVR 6NE    N/A     45  12  26 W15       30.00F
$$

TXZ052-054-060>062-072-078-127-140-154-169-260800-
TEXAS TECH WEST TEXAS MESONET/PERMIAN BASIN/
CONCHO VALLEY/BIG COUNTRY/EDWARDS PLATEAU

CITY           SKY/WX    TMP DP  RH WIND       PRES   REMARKS
COYANOSA 2N      N/A     41  15  34 SW7       30.18R
JUNCTION 1SSW    N/A     32  22  68 S2        30.21S
MERTZON 3NNE     N/A     42  19  40 S10       30.17S
SAN ANGELO 7NW   N/A     36  20  53 SW1       30.15S
STRLNG CT 4WSW   N/A     44  17  34 SW10      30.13F
ST LAWRNCE 5SW   N/A     39  14  36 SW10      30.15S WCI  32
SWEETWATR 11SW   N/A     47  15  28 SW14      30.10F
WALL 1E          N/A     41  22  45 SW9       30.15S
$$

TXZ055-058-074-075-080-082-260800-
TEXAS TECH WEST TEXAS MESONET/FAR WEST/SOUTHWEST MOUNTAINS/TRANS PECOS

CITY           SKY/WX    TMP DP  RH WIND       PRES   REMARKS
PRSMN GAP BBNP   N/A     45  13  27 SW8       30.24S
GUADLPE MTN NP   N/A     40   4  22 S18G29    30.25R WCI  31
$$



USA.gov is the U.S. government's official web portal to all federal, state and local government web resources and services.